www.pogodaiklimat.ru

Погода и климат >> Архив погоды >> Колумбия >> Нейва


ПОГОДА в Нейве

  • Прогноз погоды в Нейве
  • Монитор погоды в Нейве

АРХИВ ПОГОДЫ в Нейве

Время (UTC), дата Ветер
(напр.,м/с)
 
Видим.   Явления Облачность Т
(С)
Тd
(С)
f
(%)
Тe
(С)
Тes
(С)
Комфортность P
(гПа)
Po
(гПа)
Тmin
(С)
Tmax
(С)
R
(мм)
R24
(мм)
S
(см)
03 12.09 ЮЗ 4 20 км 6/1 1200 м
[Cu hum Ac As]
+31.0 +17.3 44 +35 +35 очень
душно
1005.6 956.7
12 12.09 З 1 20 км 8/1 1500 м
[Cu hum Ac As]
+27.0 +17.7 57 +31 +32 душно 1008.1 958.4 +25.4
15 12.09 Ю 3 20 км 5/1 1500 м
[Cu hum Ac As Cs]
+33.1 +16.8 38 +36 +46 очень
душно
1008.0 959.3
18 12.09 СЗ 3 18 км дым 4/3 1500 м
[Cu hum Ac trans Cs]
+36.7 +14.8 27 +38 +49 очень
душно
1003.2 955.3
21 12.09 Ю 3 19 км дым 4/1 1500 м
[Cu med, cong Ac cast Cs]
+38.5 +14.0 23 +39 +42 душно 999.2 951.8
00 13.09 Ю 4 20 км 5/1 1500 м
[Cu hum Ac As Cs]
+34.7 +14.0 29 +36 +36 душно 1001.6 953.5 +38.5
03 13.09 Ю 3 20 км 6/1 700 м
[Cu hum Ac As]
+32.4 +15.4 36 +35 +35 душно 1005.9 957.2
12 13.09 Ю 3 16 км дым 10/1 1200 м
[Sc diur, vesp Ac As Cs]
+28.0 +17.8 54 +32 +33 душно 1009.0 959.4 +26.6
15 13.09 Ю 5 16 км дым 9/1 1350 м
[Cu hum Ac As]
+31.1 +17.8 45 +35 +38 очень
душно
1009.8 960.7
18 13.09 Ю 8 20 км 9/1 1350 м
[Cu hum Ac As]
+33.6 +15.7 34 +36 +37 очень
душно
1006.4 957.8
21 13.09 Ю 6 20 км 4/1 1350 м
[Cu hum Ac trans Cs]
+23.4 +15.3 60 +28 +29 душно 1003.1 954.8
00 14.09 Ю 5 20 км 5/1 1500 м
[Cu hum Ac As Cs]
+29.7 +17.2 47 +34 +34 очень
душно
1005.7 956.6 +35.6
03 14.09 Ю 3 20 км 5/1 1500 м
[Cu hum Ac trans Cs]
+28.8 +17.4 50 +33 +33 очень
душно
1008.9 959.5
12 14.09 Ю 3 18 км дым 10/1 1500 м
[Cu hum Ac As]
+23.3 +21.8 91 +32 +32 очень
душно
1013.2 962.6 +23.4 0.2
15 14.09 Ю 6 20 км 6/1 1500 м
[Cu hum Ac As Cs]
+27.1 +19.6 64 +33 +37 очень
душно
1012.3 962.3
18 14.09 Ю 6 16 км осадки на расстоянии 9/1 1200 м
[Cu med, cong Ac As]
+29.6 +17.6 48 +34 +36 очень
душно
1009.4 960.1
21 14.09 Ю 6 18 км дым 8/1 1200 м
[Cu med, cong Ac trans Cs]
+31.8 +17.6 43 +36 +37 очень
душно
1006.3 957.5
00 15.09 Ю 4 20 км 9/1 1200 м
[Cu hum Ac As]
+29.1 +18.5 53 +34 +34 очень
душно
1007.5 958.2 +31.5
15 15.09 Ю 5 17 км дым 8/1 1350 м
[Cu hum Ac trans Cs]
+32.3 +16.5 39 +35 +40 очень
душно
1010.0 961.1
18 15.09 ЮВ 4 1800 м 6/1 1200 м
[Cu hum Ac trans Cs]
+36.2 +13.6 26 +37 +46 очень
жарко
1005.3 957.2
21 15.09 Ю 4 20 км 9/1 1350 м
[Cu hum Cs]
+36.3 +13.3 25 +37 +39 очень
жарко
1002.2 954.3
00 16.09 Ю 3 18 км дым 9/0
[Ac trans Cs]
+33.1 +15.4 35 +35 +35 душно 1004.4 955.9 +37.0
12 16.09 Ю 3 20 км 9/1 1500 м
[Cu hum Ac As Cs]
+25.9 +17.1 58 +30 +30 душно 1010.7 960.8 +25.3
15 16.09 ЮЗ 3 20 км 4/1 1500 м
[Cu hum Ac trans Cs]
+31.5 +15.6 38 +34 +44 душно 1010.8 961.7
18 16.09 ЮЗ 4 20 км 8/1 1500 м
[Cu med, cong Ac trans Cs]
+13.6 +13 +20 1006.1 957.9
21 16.09 Ю 5 20 км 6/1 1500 м
[Cu hum Ac trans Cs]
+33.3 +16.3 36 +36 +38 очень
душно
1003.3 954.8
00 17.09 Ю 5 20 км 4/1 700 м
[Cu hum Ac trans Cs]
+30.5 +17.3 45 +34 +34 очень
душно
1004.9 955.9 +37.0
03 17.09 Ю 2 20 км 3/1 800 м
[Cu hum Ac trans]
+29.0 +16.1 46 +32 +32 душно 1007.8 958.5
12 17.09 ЮЗ 2 20 км 9/1 1000 м
[Cu med, cong Ac As Cs]
+24.2 +17.4 66 +28 +29 душно 1011.4 961.1 +23.9
15 17.09 Ю 2 20 км 6/1 1200 м
[Cu hum Ac trans Cs]
+30.4 +16.3 43 +34 +44 очень
душно
1010.9 961.6
18 17.09 ЮВ 3 20 км осадки на расстоянии 6/1 1500 м
[Cu hum Ac As Cs]
+35.3 +15.8 31 +37 +48 очень
душно
1005.5 957.3
21 17.09 Ю 3 10 км осадки на расстоянии 9/1 1500 м
[Cu hum Ac As]
+34.4 +15.3 32 +36 +38 душно 1003.4 955.1
00 18.09 Ю 2 18 км зарница {морось} 8/1 1050 м
[Cu hum Ac As Cs]
+27.0 +19.1 62 +32 +32 очень
душно
1005.9 956.4 +36.4 0.2
03 18.09 Ю 2 18 км 1/0
[Ac trans Cs]
+26.3 +20.2 69 +32 +32 очень
душно
1007.8 958.1
12 18.09 Ю 3 20 км 9/1 1200 м
[Sc Ac As]
+24.9 +20.3 76 +31 +31 очень
душно
1010.2 960.1 +24.0 0.2
15 18.09 СВ 5 18 км мгла 8/4 1050 м
[Cu med, cong Ac trans Cs]
+30.5 +21.0 57 +38 +41 очень
душно
1010.0 960.8
18 18.09 СВ 5 18 км осадки на расстоянии 9/4 1200 м
[Cu med, cong Ac As]
+31.2 +19.1 49 +37 +39 очень
душно
1006.7 957.8
21 18.09 СЗ 3 20 км {морось} 9/1 1350 м
[Cu med, cong Ac As Cs]
+29.7 +20.4 57 +36 +39 очень
душно
1004.8 955.7
00 19.09 Ю 3 20 км {морось} 9/0
[Ac As Cs]
+28.2 +20.3 62 +35 +35 очень
душно
1006.0 956.6 +32.7 0.2

 

Местоположение метеостанции Нейва (Колумбия): широта 2.97 долгота -75.30 высота над уровнем моря 443 м.

В архиве по умолчанию представлена погода в Нейве за последнюю неделю. Архивные данные за месяц целиком и за предыдущие месяцы, начиная с января 2011 года, Вы можете получить, выбрав интересующий диапазон дат из раскрывающегося списка и нажав кнопку "Ввод!".


*Определитесь, кто Вы:
робот инопланетянин человек

Внимание! Время в таблицах - всемирное. Для получения местного времени необходимо прибавить поправку, которая равна -5 ч.

Смотрите также архив погоды в соседних городах и на ближайших метеорологических станциях:

Погода в Кали (Колумбия) (136 км)
Погода в Ибаге (Колумбия) (163 км)
Погода в Армении (Колумбия) (176 км)
Погода в Перейре (Колумбия) (211 км)
Погода в Вильявисенсьо (Колумбия) (230 км)
Погода в Боготе (Колумбия) (232 км)
Погода в Пасто (Колумбия) (278 км)
Погода в Кибдо (Колумбия) (339 км)
Погода в Рионегро (Колумбия) (352 км)
Погода в Ипьялесе (Колумбия) (353 км)

Пояснения к столбцам:

Ветер - указаны скорость ветра в м/с - средняя за 10 мин, порывы в срок и между сроками (в фигурных скобках) и направление, откуда дует ветер: С - северный, СВ - северо-восточный, В - восточный, ЮВ - юго-восточный, Ю - южный, ЮЗ - юго-западный, З - западный, СЗ - северо-западный.
Видимость - горизонтальная дальность видимости в метрах или километрах. При видимости от 1 до 10 км при отсутствии осадков обычно наблюдается дымка, при ухудшении видимости до 1 км и менее - туман. В сухую погоду видимость может ухудшаться дымом, пылью или мглою.
Явления - указаны атмосферные явления, наблюдавшиеся в срок или в последний час перед сроком; фигурными скобками обозначены явления, наблюдавшиеся между сроками (за 1-3 часа до срока); квадратными скобками обозначены град или гололедные отложения с указанием их диаметра в мм.
Облачность - указаны через наклонную черту общая и нижняя облачность в баллах и высота нижней границы облаков в метрах; квадратными скобками обозначены формы облаков: Ci - перистые, Cs - перисто-слоистые, Cc - перисто-кучевые, Ac - высококучевые, As - высокослоистые, Sc - слоисто-кучевые, Ns - слоисто-дождевые, Cu - кучевые, Cb - кучево-дождевые. Подробнее классификацию облаков см. в Атласе облаков (PDF).
T - Температура воздуха - температура, измеренная на высоте 2 м над землей.
Td - Температура точки росы - температура, при понижении до которой содержащийся в воздухе водяной пар достигнет насыщения.
f - Относительная влажность воздуха - влажноcть воздуха, измеренная на высоте 2 м над землей.
Te - Эффективная температура - температура, которую ощущает одетый по сезону человек в тени. Характеристика душности погоды. При расчете учитывается влияние влажности воздуха и скорости ветра на теплоощущения человека.
Tes - Эффективная температура на солнце - температура, которую ощущает человек, с поправкой на солнечный нагрев. Характеристика знойности погоды. Зависит от высоты солнца над горизонтом, облачности и скорости ветра. Ночью, в пасмурную погоду, а также при ветре 12 м/с и более поправка равна нулю.
P - Атмосферное давление - приведенное к уровню моря атмосферное давление.
Po - Атмосферное давление - измеренное на уровне метеостанции атмосферное давление.
Tmin - Минимальная температура - минимум температуры воздуха на высоте 2 м над землей.
Tmax - Максимальная температура - максимум температуры воздуха на высоте 2 м над землей.
R - Количество осадков - Количество выпавших осадков за период времени, мм. При наведении курсора мыши на число - период времени, за который выпало указанное количество осадков.
R24 - Количество осадков - Количество выпавших осадков за 24 часа, мм.
S - Снежный покров - Высота снежного покрова, см. При наведении курсора мыши на число - состояние снежного покрова и степень покрытия местности в баллах.